| time (UTC) | temp C | wind direction | speed KPH | gust KPH | rain 1hr cm | rain 24hr cm | rain mn cm | humidity % | barometer mb |
| 20260510164712 | 25 | 0 | 3.2 | 3.2 | 0.00 | 0.00 | 0.00 | 87 | 1018.5 |
| 20260510164210 | 25 | 238 | 3.2 | 4.8 | 0.00 | 0.00 | 0.00 | 88 | 1018.2 |
| 20260510163705 | 25 | 357 | 3.2 | 3.2 | 0.00 | 0.00 | 0.00 | 90 | 1018.6 |
| 20260510163201 | 24 | 1 | 4.8 | 4.8 | 0.00 | 0.00 | 0.00 | 88 | 1018.6 |
| 20260510162700 | 24 | 309 | 4.8 | 4.8 | 0.00 | 0.00 | 0.00 | 89 | 1018.6 |
| 20260510162158 | 23 | 351 | 3.2 | 4.8 | 0.00 | 0.00 | 0.00 | 95 | 1018.5 |
| 20260510161653 | 22 | 308 | 3.2 | 4.8 | 0.00 | 0.00 | 0.00 | 98 | 1018.5 |
| 20260510161150 | 22 | 347 | 3.2 | 3.2 | 0.00 | 0.00 | 0.00 | 99 | 1018.7 |
| 20260510160647 | 21 | 330 | 1.6 | 1.6 | 0.00 | 0.00 | 0.00 | 99 | 1018.8 |
| 20260510160142 | 21 | 29 | 4.8 | 4.8 | 0.00 | 0.00 | 0.00 | 99 | 1018.8 |
| 20260510155638 | 22 | 269 | 0.0 | 0.0 | 0.00 | 0.00 | 0.00 | 99 | 1018.7 |
| 20260510155134 | 21 | 330 | 0.0 | 0.0 | 0.00 | 0.00 | 0.00 | 99 | 1018.6 |
| 20260510154630 | 21 | 5 | 1.6 | 3.2 | 0.00 | 0.00 | 0.00 | 99 | 1018.7 |
| 20260510154126 | 21 | 314 | 1.6 | 1.6 | 0.00 | 0.00 | 0.00 | 99 | 1018.6 |
| 20260510153621 | 20 | 268 | 3.2 | 3.2 | 0.00 | 0.00 | 0.00 | 99 | 1018.5 |
| 20260510153118 | 20 | 335 | 1.6 | 1.6 | 0.00 | 0.00 | 0.00 | 99 | 1018.6 |
| 20260510152615 | 20 | 326 | 3.2 | 3.2 | 0.00 | 0.00 | 0.00 | 99 | 1018.6 |
| 20260510152111 | 20 | 339 | 4.8 | 4.8 | 0.00 | 0.00 | 0.00 | 99 | 1018.5 |
| 20260510151607 | 20 | 334 | 1.6 | 1.6 | 0.00 | 0.00 | 0.00 | 99 | 1018.6 |
| 20260510151105 | 20 | 340 | 1.6 | 3.2 | 0.00 | 0.00 | 0.00 | 99 | 1018.6 |
| 20260510150600 | 20 | 343 | 3.2 | 4.8 | 0.00 | 0.00 | 0.00 | 99 | 1018.9 |
| 20260510150056 | 20 | 4 | 0.0 | 1.6 | 0.00 | 0.00 | 0.00 | 99 | 1018.6 |
| 20260510145553 | 20 | 253 | 1.6 | 3.2 | 0.00 | 0.00 | 0.00 | 99 | 1018.7 |
| 20260510145050 | 20 | 334 | 3.2 | 4.8 | 0.00 | 0.00 | 0.00 | 99 | 1018.8 |
| 20260510144546 | 20 | 319 | 0.0 | 1.6 | 0.00 | 0.00 | 0.00 | 99 | 1018.9 |
| 20260510144042 | 20 | 2 | 1.6 | 1.6 | 0.00 | 0.00 | 0.00 | 99 | 1018.8 |
| 20260510143537 | 20 | 331 | 1.6 | 1.6 | 0.00 | 0.00 | 0.00 | 99 | 1018.7 |
| 20260510143034 | 20 | 251 | 1.6 | 1.6 | 0.00 | 0.00 | 0.00 | 99 | 1019.0 |
| 20260510142531 | 19 | 351 | 1.6 | 1.6 | 0.00 | 0.00 | 0.00 | 99 | 1019.2 |
| 20260510142028 | 20 | 351 | 1.6 | 1.6 | 0.00 | 0.00 | 0.00 | 99 | 1019.0 |
| 20260510141524 | 20 | 270 | 0.0 | 1.6 | 0.00 | 0.00 | 0.00 | 99 | 1019.0 |
| 20260510141022 | 20 | 334 | 3.2 | 3.2 | 0.00 | 0.00 | 0.00 | 99 | 1019.0 |
| 20260510140518 | 19 | 353 | 1.6 | 1.6 | 0.00 | 0.00 | 0.00 | 99 | 1019.0 |
| 20260510140018 | 19 | 347 | 0.0 | 0.0 | 0.00 | 0.00 | 0.00 | 99 | 1018.7 |
| 20260510135513 | 19 | 339 | 0.0 | 0.0 | 0.00 | 0.00 | 0.00 | 99 | 1018.9 |
| 20260510135010 | 19 | 340 | 1.6 | 1.6 | 0.00 | 0.00 | 0.00 | 99 | 1018.8 |
| 20260510134507 | 19 | 0 | 3.2 | 3.2 | 0.00 | 0.00 | 0.00 | 99 | 1018.7 |
| 20260510134004 | 19 | 322 | 4.8 | 4.8 | 0.00 | 0.00 | 0.00 | 99 | 1018.7 |
| 20260510133500 | 19 | 269 | 0.0 | 0.0 | 0.00 | 0.00 | 0.00 | 99 | 1018.6 |
| 20260510132955 | 19 | 269 | 0.0 | 0.0 | 0.00 | 0.00 | 0.00 | 99 | 1018.5 |
| 20260510132453 | 19 | 268 | 0.0 | 0.0 | 0.00 | 0.00 | 0.00 | 99 | 1018.5 |
| 20260510131950 | 19 | 323 | 3.2 | 3.2 | 0.00 | 0.00 | 0.00 | 99 | 1018.5 |
| 20260510131448 | 18 | 316 | 1.6 | 3.2 | 0.00 | 0.00 | 0.00 | 99 | 1018.3 |
| 20260510130944 | 19 | 335 | 3.2 | 4.8 | 0.00 | 0.00 | 0.00 | 99 | 1018.1 |
| 20260510130441 | 18 | 336 | 0.0 | 0.0 | 0.00 | 0.00 | 0.00 | 99 | 1018.1 |
| 20260510125938 | 18 | 336 | 0.0 | 1.6 | 0.00 | 0.00 | 0.00 | 99 | 1018.2 |
| 20260510125434 | 18 | 338 | 1.6 | 1.6 | 0.00 | 0.00 | 0.00 | 99 | 1018.2 |
| 20260510124930 | 18 | 329 | 0.0 | 0.0 | 0.00 | 0.00 | 0.00 | 99 | 1018.3 |
| 20260510124427 | 18 | 331 | 3.2 | 3.2 | 0.00 | 0.00 | 0.00 | 99 | 1018.1 |
| 20260510123924 | 18 | 308 | 0.0 | 0.0 | 0.00 | 0.00 | 0.00 | 99 | 1017.9 |
| 20260510123414 | 18 | 322 | 0.0 | 0.0 | 0.00 | 0.00 | 0.00 | 99 | 1017.7 |
| 20260510122911 | 18 | 319 | 0.0 | 0.0 | 0.00 | 0.00 | 0.00 | 99 | 1017.9 |
| 20260510122411 | 18 | 298 | 0.0 | 0.0 | 0.00 | 0.00 | 0.00 | 99 | 1017.8 |
| 20260510121907 | 18 | 290 | 0.0 | 0.0 | 0.00 | 0.00 | 0.00 | 99 | 1017.6 |
| 20260510121405 | 18 | 307 | 0.0 | 0.0 | 0.00 | 0.00 | 0.00 | 99 | 1017.6 |
| 20260510120902 | 18 | 306 | 0.0 | 0.0 | 0.00 | 0.00 | 0.00 | 99 | 1017.7 |
| 20260510120359 | 18 | 289 | 0.0 | 0.0 | 0.00 | 0.00 | 0.00 | 99 | 1017.4 |
| 20260510115855 | 17 | 289 | 0.0 | 0.0 | 0.00 | 0.00 | 0.00 | 99 | 1017.3 |
| 20260510115352 | 17 | 289 | 1.6 | 1.6 | 0.00 | 0.00 | 0.00 | 99 | 1017.4 |
| 20260510114848 | 17 | 292 | 0.0 | 0.0 | 0.00 | 0.00 | 0.00 | 99 | 1017.2 |
| 20260510114346 | 17 | 292 | 0.0 | 0.0 | 0.00 | 0.00 | 0.00 | 99 | 1017.0 |
| 20260510113845 | 17 | 292 | 0.0 | 0.0 | 0.00 | 0.00 | 0.00 | 99 | 1016.8 |
| 20260510113342 | 17 | 292 | 0.0 | 0.0 | 0.00 | 0.00 | 0.00 | 99 | 1016.5 |
| 20260510112839 | 17 | 292 | 1.6 | 1.6 | 0.00 | 0.00 | 0.00 | 99 | 1016.7 |
| 20260510112336 | 17 | 309 | 0.0 | 0.0 | 0.00 | 0.00 | 0.00 | 99 | 1016.6 |
| 20260510111832 | 17 | 309 | 0.0 | 0.0 | 0.00 | 0.00 | 0.00 | 99 | 1016.4 |
| 20260510111329 | 17 | 317 | 0.0 | 0.0 | 0.00 | 0.00 | 0.00 | 99 | 1016.2 |
| 20260510110828 | 17 | 317 | 0.0 | 0.0 | 0.00 | 0.00 | 0.00 | 99 | 1016.0 |
| 20260510110326 | 17 | 317 | 0.0 | 0.0 | 0.00 | 0.00 | 0.00 | 99 | 1016.0 |
| 20260510105822 | 17 | 317 | 0.0 | 0.0 | 0.00 | 0.00 | 0.00 | 99 | 1015.8 |
| 20260510105321 | 17 | 317 | 0.0 | 0.0 | 0.00 | 0.00 | 0.00 | 99 | 1015.8 |
| 20260510104818 | 17 | 317 | 0.0 | 0.0 | 0.00 | 0.00 | 0.00 | 99 | 1015.9 |
| 20260510104315 | 17 | 317 | 0.0 | 0.0 | 0.00 | 0.00 | 0.00 | 99 | 1015.8 |
| 20260510103812 | 17 | 317 | 0.0 | 0.0 | 0.00 | 0.00 | 0.00 | 99 | 1015.8 |
| 20260510103309 | 17 | 317 | 0.0 | 0.0 | 0.00 | 0.00 | 0.00 | 99 | 1015.7 |
| 20260510102804 | 17 | 317 | 0.0 | 0.0 | 0.00 | 0.00 | 0.00 | 99 | 1015.6 |
| 20260510102300 | 17 | 317 | 0.0 | 0.0 | 0.00 | 0.00 | 0.00 | 99 | 1015.6 |
| 20260510101757 | 17 | 317 | 0.0 | 0.0 | 0.00 | 0.00 | 0.00 | 99 | 1015.4 |
| 20260510101255 | 17 | 317 | 0.0 | 0.0 | 0.00 | 0.00 | 0.00 | 99 | 1015.6 |
| 20260510100751 | 17 | 317 | 0.0 | 0.0 | 0.00 | 0.00 | 0.00 | 99 | 1015.6 |
| 20260510100249 | 17 | 317 | 0.0 | 0.0 | 0.00 | 0.00 | 0.00 | 99 | 1015.4 |
| 20260510095744 | 17 | 317 | 0.0 | 0.0 | 0.00 | 0.00 | 0.00 | 99 | 1015.2 |
| 20260510095240 | 17 | 317 | 0.0 | 0.0 | 0.00 | 0.00 | 0.00 | 99 | 1015.3 |
| 20260510094738 | 17 | 317 | 0.0 | 0.0 | 0.00 | 0.00 | 0.00 | 99 | 1015.2 |
| 20260510094234 | 17 | 317 | 0.0 | 0.0 | 0.00 | 0.00 | 0.00 | 99 | 1015.5 |
| 20260510093730 | 17 | 317 | 0.0 | 0.0 | 0.00 | 0.00 | 0.00 | 99 | 1015.4 |
| 20260510093228 | 17 | 317 | 0.0 | 0.0 | 0.00 | 0.00 | 0.00 | 99 | 1015.5 |
| 20260510092724 | 18 | 317 | 0.0 | 0.0 | 0.00 | 0.00 | 0.00 | 99 | 1015.2 |
| 20260510092220 | 18 | 317 | 0.0 | 0.0 | 0.00 | 0.00 | 0.00 | 99 | 1015.3 |
| 20260510091716 | 18 | 317 | 0.0 | 0.0 | 0.00 | 0.00 | 0.00 | 99 | 1015.3 |
| 20260510091212 | 18 | 317 | 0.0 | 0.0 | 0.00 | 0.00 | 0.00 | 99 | 1015.5 |
| 20260510090709 | 18 | 317 | 0.0 | 0.0 | 0.00 | 0.00 | 0.00 | 99 | 1015.4 |
| 20260510090206 | 18 | 320 | 1.6 | 1.6 | 0.00 | 0.00 | 0.00 | 99 | 1015.4 |
| 20260510085701 | 18 | 318 | 1.6 | 1.6 | 0.00 | 0.00 | 0.00 | 99 | 1015.3 |
| 20260510085156 | 18 | 318 | 0.0 | 0.0 | 0.00 | 0.00 | 0.00 | 99 | 1015.0 |
| 20260510084653 | 18 | 318 | 0.0 | 0.0 | 0.00 | 0.00 | 0.00 | 99 | 1015.0 |
| 20260510084149 | 18 | 319 | 1.6 | 1.6 | 0.00 | 0.00 | 0.00 | 99 | 1015.0 |
| 20260510083646 | 18 | 318 | 0.0 | 1.6 | 0.00 | 0.00 | 0.00 | 99 | 1015.1 |
| 20260510083143 | 18 | 317 | 0.0 | 1.6 | 0.00 | 0.00 | 0.00 | 99 | 1014.9 |
| 20260510082639 | 18 | 317 | 1.6 | 1.6 | 0.00 | 0.00 | 0.00 | 99 | 1015.1 |
| 20260510082135 | 18 | 317 | 1.6 | 1.6 | 0.00 | 0.00 | 0.00 | 99 | 1014.9 |
| 20260510081629 | 18 | 317 | 0.0 | 1.6 | 0.00 | 0.00 | 0.00 | 99 | 1015.1 |
| 20260510081126 | 18 | 317 | 1.6 | 1.6 | 0.00 | 0.00 | 0.00 | 99 | 1015.1 |
| 20260510080625 | 18 | 316 | 0.0 | 0.0 | 0.00 | 0.00 | 0.00 | 99 | 1014.8 |
| 20260510080122 | 18 | 316 | 0.0 | 0.0 | 0.00 | 0.00 | 0.00 | 99 | 1014.6 |
| 20260510075619 | 18 | 316 | 1.6 | 1.6 | 0.00 | 0.00 | 0.00 | 99 | 1014.8 |
| 20260510075117 | 18 | 311 | 0.0 | 0.0 | 0.00 | 0.00 | 0.00 | 99 | 1014.8 |
| 20260510074614 | 18 | 310 | 0.0 | 1.6 | 0.00 | 0.00 | 0.00 | 99 | 1014.8 |
| 20260510074109 | 18 | 307 | 0.0 | 0.0 | 0.00 | 0.00 | 0.00 | 99 | 1014.7 |
| 20260510073605 | 18 | 297 | 1.6 | 1.6 | 0.00 | 0.00 | 0.00 | 99 | 1014.7 |
| 20260510073103 | 18 | 297 | 0.0 | 0.0 | 0.00 | 0.00 | 0.00 | 99 | 1014.5 |
| 20260510072559 | 18 | 296 | 0.0 | 0.0 | 0.00 | 0.00 | 0.00 | 99 | 1015.0 |
| 20260510072055 | 18 | 296 | 0.0 | 0.0 | 0.00 | 0.00 | 0.00 | 99 | 1014.7 |
| 20260510071551 | 18 | 289 | 0.0 | 0.0 | 0.00 | 0.00 | 0.00 | 99 | 1015.0 |
| 20260510071049 | 18 | 289 | 0.0 | 0.0 | 0.00 | 0.00 | 0.00 | 99 | 1015.1 |
| 20260510070546 | 18 | 289 | 0.0 | 0.0 | 0.00 | 0.00 | 0.00 | 99 | 1014.9 |
| 20260510070043 | 18 | 284 | 0.0 | 0.0 | 0.00 | 0.00 | 0.00 | 99 | 1014.9 |
| 20260510065539 | 18 | 280 | 0.0 | 0.0 | 0.00 | 0.00 | 0.00 | 99 | 1014.9 |
| 20260510065035 | 18 | 280 | 0.0 | 0.0 | 0.00 | 0.00 | 0.00 | 99 | 1014.8 |
| 20260510064532 | 18 | 255 | 0.0 | 0.0 | 0.00 | 0.00 | 0.00 | 99 | 1014.6 |
| 20260510064028 | 18 | 251 | 0.0 | 0.0 | 0.00 | 0.00 | 0.00 | 99 | 1014.7 |
| 20260510063525 | 18 | 258 | 3.2 | 3.2 | 0.00 | 0.00 | 0.00 | 99 | 1014.6 |
| 20260510063023 | 18 | 273 | 0.0 | 0.0 | 0.00 | 0.00 | 0.00 | 99 | 1014.7 |
| 20260510062518 | 18 | 273 | 0.0 | 0.0 | 0.00 | 0.00 | 0.00 | 99 | 1014.9 |
| 20260510062014 | 18 | 273 | 0.0 | 0.0 | 0.00 | 0.00 | 0.00 | 99 | 1015.1 |
| 20260510061511 | 18 | 273 | 0.0 | 0.0 | 0.00 | 0.00 | 0.00 | 99 | 1015.1 |
| 20260510061007 | 18 | 273 | 0.0 | 0.0 | 0.00 | 0.00 | 0.00 | 99 | 1014.9 |
| 20260510060504 | 18 | 273 | 0.0 | 0.0 | 0.00 | 0.00 | 0.00 | 99 | 1015.2 |
| 20260510060000 | 18 | 273 | 0.0 | 0.0 | 0.00 | 0.00 | 0.00 | 99 | 1014.8 |
| 20260510055456 | 18 | 273 | 0.0 | 0.0 | 0.00 | 0.00 | 0.00 | 99 | 1015.2 |
| 20260510054954 | 18 | 273 | 0.0 | 0.0 | 0.00 | 0.00 | 0.00 | 99 | 1015.1 |
| 20260510054449 | 18 | 273 | 0.0 | 0.0 | 0.00 | 0.00 | 0.00 | 99 | 1015.2 |
| 20260510053945 | 18 | 273 | 0.0 | 0.0 | 0.00 | 0.00 | 0.00 | 99 | 1015.1 |
| 20260510053440 | 18 | 273 | 0.0 | 0.0 | 0.00 | 0.00 | 0.00 | 99 | 1014.9 |
| 20260510052936 | 18 | 273 | 0.0 | 0.0 | 0.00 | 0.00 | 0.00 | 99 | 1015.0 |
| 20260510052432 | 18 | 273 | 0.0 | 0.0 | 0.00 | 0.00 | 0.00 | 99 | 1015.0 |
| 20260510051929 | 18 | 273 | 0.0 | 0.0 | 0.00 | 0.00 | 0.00 | 99 | 1014.9 |
| 20260510051425 | 18 | 273 | 0.0 | 1.6 | 0.00 | 0.00 | 0.00 | 99 | 1014.6 |
| 20260510050922 | 18 | 273 | 0.0 | 0.0 | 0.00 | 0.00 | 0.00 | 99 | 1014.8 |
| 20260510050418 | 18 | 273 | 0.0 | 0.0 | 0.00 | 0.00 | 0.00 | 99 | 1014.9 |
| 20260510045916 | 18 | 284 | 1.6 | 1.6 | 0.00 | 6.35 | 6.35 | 99 | 1014.4 |
| 20260510045413 | 18 | 295 | 0.0 | 0.0 | 0.00 | 6.35 | 6.35 | 99 | 1014.5 |
| 20260510044909 | 18 | 299 | 0.0 | 0.0 | 0.00 | 6.35 | 6.35 | 99 | 1014.5 |
| 20260510044407 | 18 | 329 | 0.0 | 0.0 | 0.00 | 6.35 | 6.35 | 99 | 1014.4 |
| 20260510043903 | 18 | 329 | 0.0 | 0.0 | 0.00 | 6.35 | 6.35 | 99 | 1014.8 |
| 20260510043359 | 18 | 329 | 0.0 | 0.0 | 0.00 | 6.35 | 6.35 | 99 | 1014.7 |
| 20260510042857 | 18 | 329 | 0.0 | 0.0 | 0.00 | 6.35 | 6.35 | 99 | 1014.7 |
| 20260510042353 | 18 | 329 | 0.0 | 0.0 | 0.00 | 6.35 | 6.35 | 99 | 1014.9 |
| 20260510041849 | 18 | 329 | 0.0 | 0.0 | 0.00 | 6.35 | 6.35 | 99 | 1015.1 |
| 20260510041346 | 18 | 329 | 0.0 | 0.0 | 0.00 | 6.35 | 6.35 | 99 | 1014.9 |
| 20260510040844 | 18 | 329 | 0.0 | 0.0 | 0.00 | 6.35 | 6.35 | 99 | 1015.1 |
| 20260510040340 | 18 | 329 | 0.0 | 0.0 | 0.00 | 6.35 | 6.35 | 99 | 1015.4 |
| 20260510035836 | 18 | 329 | 0.0 | 0.0 | 0.00 | 6.35 | 6.35 | 99 | 1015.6 |
| 20260510035332 | 18 | 329 | 0.0 | 0.0 | 0.00 | 6.35 | 6.35 | 99 | 1015.6 |
| 20260510034828 | 18 | 329 | 0.0 | 0.0 | 0.00 | 6.35 | 6.35 | 99 | 1015.7 |
| 20260510034326 | 18 | 329 | 0.0 | 0.0 | 0.00 | 6.35 | 6.35 | 99 | 1015.5 |
| 20260510033822 | 18 | 329 | 0.0 | 0.0 | 0.00 | 6.35 | 6.35 | 99 | 1015.5 |
| 20260510033319 | 18 | 329 | 0.0 | 0.0 | 0.00 | 6.35 | 6.35 | 99 | 1015.7 |
| 20260510032816 | 18 | 329 | 0.0 | 0.0 | 0.00 | 6.35 | 6.35 | 99 | 1015.5 |
| 20260510032312 | 18 | 329 | 0.0 | 0.0 | 0.00 | 6.35 | 6.35 | 99 | 1015.5 |
| 20260510031808 | 18 | 329 | 0.0 | 0.0 | 0.00 | 6.35 | 6.35 | 99 | 1015.2 |
| 20260510031303 | 18 | 329 | 0.0 | 0.0 | 0.00 | 6.35 | 6.35 | 99 | 1015.2 |
| 20260510030757 | 18 | 330 | 3.2 | 3.2 | 0.00 | 6.35 | 6.35 | 99 | 1015.3 |
| 20260510030254 | 18 | 330 | 0.0 | 0.0 | 0.00 | 6.35 | 6.35 | 99 | 1015.5 |
| 20260510025752 | 18 | 330 | 0.0 | 0.0 | 0.00 | 6.35 | 6.35 | 99 | 1015.2 |
| 20260510025249 | 18 | 330 | 0.0 | 0.0 | 0.00 | 6.35 | 6.35 | 99 | 1015.4 |
| 20260510024745 | 18 | 330 | 0.0 | 0.0 | 0.00 | 6.35 | 6.35 | 99 | 1015.7 |
| 20260510024242 | 18 | 317 | 0.0 | 0.0 | 0.13 | 6.35 | 6.35 | 99 | 1015.5 |
| 20260510023738 | 18 | 317 | 0.0 | 0.0 | 0.13 | 6.35 | 6.35 | 99 | 1015.9 |
| 20260510023230 | 18 | 324 | 0.0 | 0.0 | 0.00 | 6.32 | 6.32 | 99 | 1015.6 |
| 20260510022726 | 18 | 323 | 1.6 | 1.6 | 0.00 | 6.32 | 6.32 | 99 | 1015.2 |
| 20260510022225 | 18 | 342 | 3.2 | 3.2 | 0.00 | 6.32 | 6.32 | 99 | 1015.0 |
| 20260510021721 | 18 | 341 | 0.0 | 1.6 | 0.00 | 6.32 | 6.32 | 99 | 1015.5 |
| 20260510021219 | 18 | 325 | 0.0 | 1.6 | 0.00 | 6.32 | 6.32 | 99 | 1015.1 |
| 20260510020714 | 18 | 298 | 0.0 | 0.0 | 0.00 | 6.32 | 6.32 | 99 | 1014.7 |
| 20260510020209 | 18 | 298 | 0.0 | 1.6 | 0.00 | 6.32 | 6.32 | 99 | 1014.4 |
| 20260510015705 | 18 | 294 | 1.6 | 1.6 | 0.00 | 6.32 | 6.32 | 99 | 1015.0 |
| 20260510015201 | 18 | 287 | 0.0 | 1.6 | 0.00 | 6.32 | 6.32 | 99 | 1014.5 |
| 20260510014701 | 18 | 274 | 0.0 | 0.0 | 0.00 | 6.32 | 6.32 | 99 | 1014.2 |
| 20260510014159 | 18 | 204 | 0.0 | 0.0 | 0.00 | 6.32 | 6.32 | 99 | 1013.7 |
| 20260510013654 | 18 | 204 | 0.0 | 0.0 | 0.00 | 6.32 | 6.32 | 99 | 1013.9 |
| 20260510013150 | 18 | 204 | 0.0 | 0.0 | 0.00 | 6.32 | 6.32 | 99 | 1013.6 |
| 20260510012650 | 18 | 223 | 3.2 | 3.2 | 0.00 | 6.32 | 6.32 | 99 | 1014.0 |
| 20260510012146 | 18 | 269 | 0.0 | 0.0 | 0.00 | 6.32 | 6.32 | 99 | 1014.1 |
| 20260510011641 | 18 | 270 | 0.0 | 0.0 | 0.00 | 6.32 | 6.32 | 99 | 1014.0 |
| 20260510011137 | 18 | 270 | 0.0 | 0.0 | 0.00 | 6.32 | 6.32 | 99 | 1013.9 |
| 20260510010633 | 18 | 266 | 0.0 | 0.0 | 0.00 | 6.32 | 6.32 | 99 | 1014.2 |
| 20260510010130 | 18 | 247 | 0.0 | 0.0 | 0.00 | 6.32 | 6.32 | 99 | 1014.2 |
| 20260510005625 | 18 | 242 | 0.0 | 0.0 | 0.00 | 6.32 | 6.32 | 99 | 1014.1 |
| 20260510005123 | 18 | 242 | 0.0 | 0.0 | 0.18 | 6.32 | 6.32 | 99 | 1014.2 |
| 20260510004621 | 18 | 242 | 0.0 | 0.0 | 0.18 | 6.32 | 6.32 | 99 | 1014.1 |
| 20260510004119 | 18 | 242 | 0.0 | 0.0 | 0.00 | 6.30 | 6.30 | 99 | 1014.0 |
| 20260510003616 | 18 | 242 | 0.0 | 0.0 | 0.00 | 6.30 | 6.30 | 99 | 1014.4 |
| 20260510003112 | 18 | 242 | 0.0 | 0.0 | 0.00 | 6.30 | 6.30 | 99 | 1014.3 |
| 20260510002606 | 19 | 242 | 0.0 | 1.6 | 0.00 | 6.30 | 6.30 | 99 | 1014.5 |
| 20260510002103 | 19 | 240 | 0.0 | 0.0 | 0.00 | 6.30 | 6.30 | 99 | 1014.4 |
| 20260510001601 | 19 | 239 | 0.0 | 0.0 | 0.13 | 6.30 | 6.30 | 99 | 1014.2 |
| 20260510001100 | 19 | 278 | 0.0 | 0.0 | 0.13 | 6.30 | 6.30 | 99 | 1014.4 |
| 20260510000600 | 19 | 280 | 0.0 | 1.6 | 0.00 | 6.27 | 6.27 | 99 | 1014.2 |
| 20260510000056 | 19 | 257 | 1.6 | 1.6 | 0.18 | 6.27 | 6.27 | 99 | 1014.3 |
| 20260509235553 | 19 | 252 | 0.0 | 0.0 | 0.18 | 6.27 | 6.27 | 99 | 1013.8 |
| 20260509235050 | 19 | 283 | 1.6 | 1.6 | 0.13 | 6.25 | 6.25 | 99 | 1014.2 |
| 20260509234546 | 19 | 310 | 0.0 | 0.0 | 0.13 | 6.25 | 6.25 | 99 | 1014.2 |
| 20260509234044 | 19 | 265 | 0.0 | 0.0 | 0.00 | 6.22 | 6.22 | 99 | 1014.0 |
| 20260509233541 | 19 | 265 | 0.0 | 0.0 | 0.00 | 6.22 | 6.22 | 99 | 1013.1 |
| 20260509233038 | 19 | 265 | 0.0 | 0.0 | 0.18 | 6.22 | 6.22 | 99 | 1013.3 |
| 20260509232535 | 19 | 281 | 1.6 | 1.6 | 0.18 | 6.22 | 6.22 | 99 | 1013.5 |
| 20260509232032 | 19 | 306 | 1.6 | 1.6 | 0.13 | 6.20 | 6.20 | 99 | 1013.5 |
| 20260509231528 | 19 | 267 | 0.0 | 0.0 | 0.13 | 6.20 | 6.20 | 99 | 1013.8 |
| 20260509231026 | 19 | 267 | 0.0 | 1.6 | 0.00 | 6.17 | 6.17 | 99 | 1014.1 |
| 20260509230522 | 19 | 274 | 0.0 | 0.0 | 0.00 | 6.17 | 6.17 | 99 | 1013.7 |
| 20260509230020 | 19 | 233 | 1.6 | 1.6 | 0.00 | 6.17 | 6.17 | 99 | 1014.3 |
| 20260509225515 | 19 | 268 | 1.6 | 1.6 | 0.00 | 6.17 | 6.17 | 99 | 1014.6 |
| 20260509225011 | 19 | 194 | 0.0 | 1.6 | 0.00 | 6.17 | 6.17 | 99 | 1014.2 |
| 20260509224507 | 19 | 251 | 1.6 | 3.2 | 0.00 | 6.17 | 6.17 | 99 | 1014.3 |
| 20260509224004 | 19 | 286 | 1.6 | 1.6 | 0.00 | 6.17 | 6.17 | 99 | 1014.1 |
| 20260509223500 | 19 | 277 | 0.0 | 0.0 | 0.00 | 6.17 | 6.17 | 99 | 1014.1 |
| 20260509222958 | 19 | 313 | 3.2 | 3.2 | 0.00 | 6.17 | 6.17 | 99 | 1013.1 |
| 20260509222453 | 19 | 254 | 4.8 | 4.8 | 0.00 | 6.17 | 6.17 | 99 | 1012.9 |
| 20260509221949 | 19 | 266 | 0.0 | 1.6 | 0.00 | 6.17 | 6.17 | 99 | 1013.2 |
| 20260509221446 | 19 | 292 | 0.0 | 1.6 | 0.00 | 6.17 | 6.17 | 99 | 1013.5 |
| 20260509220941 | 19 | 257 | 0.0 | 0.0 | 0.00 | 6.17 | 6.17 | 99 | 1013.3 |
| 20260509220438 | 19 | 257 | 0.0 | 0.0 | 0.00 | 6.17 | 6.17 | 99 | 1013.1 |
| 20260509215934 | 19 | 257 | 0.0 | 0.0 | 0.00 | 6.17 | 6.17 | 99 | 1013.4 |
| 20260509215429 | 19 | 257 | 1.6 | 1.6 | 0.00 | 6.17 | 6.17 | 99 | 1013.2 |
| 20260509214927 | 19 | 247 | 0.0 | 0.0 | 0.00 | 6.17 | 6.17 | 99 | 1013.1 |
| 20260509214424 | 19 | 246 | 0.0 | 0.0 | 0.00 | 6.17 | 6.17 | 99 | 1012.5 |
| 20260509213921 | 19 | 305 | 0.0 | 0.0 | 0.00 | 6.17 | 6.17 | 99 | 1012.8 |
| 20260509213416 | 19 | 305 | 0.0 | 0.0 | 0.00 | 6.17 | 6.17 | 99 | 1013.1 |
| 20260509212914 | 19 | 321 | 0.0 | 0.0 | 0.00 | 6.17 | 6.17 | 99 | 1012.8 |
| 20260509212412 | 19 | 309 | 1.6 | 3.2 | 0.00 | 6.17 | 6.17 | 99 | 1013.2 |
| 20260509211908 | 19 | 247 | 0.0 | 0.0 | 0.18 | 6.17 | 6.17 | 99 | 1012.7 |
| 20260509211403 | 19 | 247 | 0.0 | 0.0 | 0.18 | 6.17 | 6.17 | 99 | 1012.1 |
| 20260509210900 | 19 | 247 | 0.0 | 0.0 | 0.00 | 6.15 | 6.15 | 99 | 1012.1 |
| 20260509210357 | 18 | 247 | 0.0 | 0.0 | 0.00 | 6.15 | 6.15 | 99 | 1012.5 |
| 20260509205852 | 18 | 243 | 0.0 | 0.0 | 0.00 | 6.15 | 6.15 | 99 | 1012.8 |
| 20260509205346 | 18 | 243 | 0.0 | 1.6 | 0.00 | 6.15 | 6.15 | 99 | 1012.9 |
| 20260509204844 | 18 | 255 | 0.0 | 0.0 | 0.00 | 6.15 | 6.15 | 99 | 1013.3 |
| 20260509204340 | 18 | 317 | 1.6 | 3.2 | 0.00 | 6.15 | 6.15 | 99 | 1014.1 |
| 20260509203836 | 19 | 310 | 1.6 | 1.6 | 0.00 | 6.15 | 6.15 | 99 | 1013.9 |
| 20260509203333 | 18 | 255 | 0.0 | 0.0 | 0.00 | 6.15 | 6.15 | 99 | 1013.2 |
| 20260509202829 | 18 | 290 | 0.0 | 0.0 | 0.00 | 6.15 | 6.15 | 99 | 1013.4 |
| 20260509202326 | 18 | 286 | 1.6 | 1.6 | 0.00 | 6.15 | 6.15 | 99 | 1013.6 |
| 20260509201825 | 18 | 310 | 1.6 | 1.6 | 0.00 | 6.15 | 6.15 | 99 | 1013.5 |
| 20260509201322 | 18 | 327 | 1.6 | 1.6 | 0.00 | 6.15 | 6.15 | 99 | 1013.5 |
| 20260509200818 | 18 | 324 | 0.0 | 0.0 | 0.00 | 6.15 | 6.15 | 99 | 1013.7 |
| 20260509200314 | 18 | 276 | 1.6 | 1.6 | 0.00 | 6.15 | 6.15 | 99 | 1013.6 |
| 20260509195811 | 18 | 307 | 0.0 | 0.0 | 0.00 | 6.15 | 6.15 | 99 | 1013.9 |
| 20260509195306 | 18 | 280 | 0.0 | 1.6 | 0.00 | 6.15 | 6.15 | 99 | 1013.7 |
| 20260509194805 | 18 | 290 | 1.6 | 3.2 | 0.00 | 6.15 | 6.15 | 99 | 1013.9 |
| 20260509194301 | 18 | 269 | 0.0 | 0.0 | 0.00 | 6.15 | 6.15 | 99 | 1013.8 |
| 20260509193758 | 18 | 323 | 0.0 | 1.6 | 0.00 | 6.15 | 6.15 | 99 | 1013.5 |
| 20260509193258 | 18 | 306 | 3.2 | 3.2 | 0.00 | 6.15 | 6.15 | 99 | 1013.4 |
| 20260509192755 | 18 | 308 | 1.6 | 1.6 | 0.00 | 6.15 | 6.15 | 99 | 1013.3 |
| 20260509192250 | 18 | 301 | 0.0 | 0.0 | 0.00 | 6.15 | 6.15 | 99 | 1013.3 |
| 20260509191745 | 18 | 305 | 0.0 | 0.0 | 0.00 | 6.15 | 6.15 | 99 | 1013.2 |
| 20260509191242 | 18 | 286 | 0.0 | 0.0 | 0.00 | 6.15 | 6.15 | 99 | 1013.2 |
| 20260509190738 | 18 | 283 | 0.0 | 0.0 | 0.00 | 6.15 | 6.15 | 99 | 1013.5 |
| 20260509190235 | 18 | 270 | 0.0 | 0.0 | 0.00 | 6.15 | 6.15 | 99 | 1013.3 |
| 20260509185733 | 18 | 273 | 1.6 | 1.6 | 0.00 | 6.15 | 6.15 | 99 | 1013.5 |
| 20260509185229 | 18 | 306 | 0.0 | 1.6 | 0.00 | 6.15 | 6.15 | 99 | 1013.1 |
| 20260509184727 | 18 | 158 | 4.8 | 4.8 | 0.00 | 6.15 | 6.15 | 99 | 1013.1 |
| 20260509184224 | 18 | 220 | 6.4 | 8.0 | 0.00 | 6.15 | 6.15 | 99 | 1013.6 |
| 20260509183720 | 18 | 173 | 3.2 | 4.8 | 0.00 | 6.15 | 6.15 | 99 | 1013.8 |
| 20260509183215 | 18 | 165 | 4.8 | 8.0 | 0.00 | 6.15 | 6.15 | 99 | 1013.7 |
| 20260509182711 | 18 | 156 | 6.4 | 8.0 | 0.00 | 6.15 | 6.15 | 99 | 1013.8 |
| 20260509182209 | 18 | 222 | 3.2 | 4.8 | 0.00 | 6.15 | 6.15 | 99 | 1013.9 |
| 20260509181706 | 18 | 233 | 3.2 | 3.2 | 0.00 | 6.15 | 6.15 | 99 | 1014.0 |
| 20260509181204 | 18 | 197 | 3.2 | 3.2 | 0.00 | 6.15 | 6.15 | 99 | 1014.0 |
| 20260509180700 | 18 | 164 | 3.2 | 4.8 | 0.00 | 6.15 | 6.15 | 99 | 1013.9 |
| 20260509180156 | 18 | 229 | 1.6 | 1.6 | 0.00 | 6.15 | 6.15 | 99 | 1014.1 |
| 20260509175653 | 18 | 209 | 3.2 | 3.2 | 0.00 | 6.15 | 6.15 | 99 | 1013.5 |
| 20260509175149 | 18 | 177 | 3.2 | 3.2 | 0.00 | 6.15 | 6.15 | 99 | 1013.3 |
| 20260509174645 | 18 | 255 | 1.6 | 1.6 | 0.00 | 6.15 | 6.15 | 99 | 1013.3 |
| 20260509174140 | 18 | 262 | 0.0 | 0.0 | 0.13 | 6.15 | 6.15 | 99 | 1013.5 |
| 20260509173636 | 17 | 246 | 0.0 | 1.6 | 0.30 | 6.15 | 6.15 | 99 | 1013.3 |
| 20260509173132 | 17 | 175 | 3.2 | 4.8 | 0.36 | 6.12 | 6.12 | 99 | 1012.2 |
| 20260509172629 | 17 | 172 | 1.6 | 3.2 | 0.30 | 6.10 | 6.10 | 99 | 1012.3 |
| 20260509172125 | 17 | 161 | 4.8 | 4.8 | 0.30 | 6.07 | 6.07 | 99 | 1012.9 |
| 20260509171621 | 17 | 165 | 4.8 | 8.0 | 0.48 | 6.05 | 6.05 | 99 | 1014.1 |
| 20260509171117 | 17 | 165 | 4.8 | 4.8 | 0.43 | 6.02 | 6.02 | 99 | 1014.6 |
| 20260509170614 | 17 | 204 | 1.6 | 3.2 | 0.43 | 5.97 | 5.97 | 99 | 1014.8 |
| 20260509170110 | 17 | 203 | 0.0 | 0.0 | 0.48 | 5.94 | 5.94 | 99 | 1014.7 |
| 20260509165608 | 17 | 170 | 1.6 | 3.2 | 0.30 | 5.89 | 5.89 | 99 | 1014.9 |
| 20260509165104 | 17 | 161 | 1.6 | 3.2 | 0.30 | 5.87 | 5.87 | 99 | 1014.6 |